Location: Unspecified
(0.0000°N, 0.0000°E)
Time: 17:04:10
(UTC+00:00)

Vanguard 2 Rocket - Pass Details

Date: 09 December 2017
Orbit: 553 x 3328 km, 32.9° (Epoch: 23 June)

Event Time Altitude Azimuth Distance (km) Brightness Sun altitude
Rises 04:07:32 0° 309° (NW) 7,008 - -24.0°
Reaches altitude 10° 04:12:45 10° 311° (NW) 5,708 - -22.8°
Exits shadow 04:18:26 24° 315° (NW) 4,222 9.7 -21.5°
Maximum altitude 04:28:46 71° 33° (NNE) 2,038 8.6 -19.2°
Drops below altitude 10° 04:37:40 10° 115° (ESE) 3,361 11.1 -17.2°
Sets 04:39:56 0° 118° (ESE) 4,062 12.0 -16.6°
